This is the latest recevied weather packets stored in our database for station/object KI4BIY. If no packets are shown the sender has not sent any weather packets the latest 10 day(s).
| Time | Temp. | Humidity | Pressure | Rain* | Wind** | Luminosity | Snow |
|---|---|---|---|---|---|---|---|
| 1777774085 | 12.78° C | 65% | 1018.4 hPa | 0 mm | - | 0 W/m² | - |
| 1777773783 | 12.78° C | 68% | 1018.3 hPa | 0 mm | - | 0 W/m² | - |
| 1777773478 | 12.78° C | 61% | 1018.2 hPa | 0 mm | - | 0 W/m² | - |
| 1777773176 | 12.78° C | 60% | 1017.8 hPa | 0 mm | - | 0 W/m² | - |
| 1777772871 | 12.78° C | 61% | 1017.9 hPa | 0 mm | - | 0 W/m² | - |
| 1777772570 | 13.33° C | 59% | 1017.8 hPa | 0 mm | - | 0 W/m² | - |
| 1777772266 | 13.33° C | 59% | 1017.8 hPa | 0 mm | - | 0 W/m² | - |
| 1777771964 | 13.33° C | 57% | 1017.6 hPa | 0 mm | - | 0 W/m² | - |
| 1777771661 | 13.89° C | 57% | 1017.8 hPa | 0 mm | - | 0 W/m² | - |
| 1777771358 | 13.89° C | 58% | 1017.8 hPa | 0 mm | - | 0 W/m² | - |
| 1777771055 | 13.89° C | 55% | 1017.4 hPa | 0 mm | - | 0 W/m² | - |
| 1777770753 | 14.44° C | 54% | 1017.2 hPa | 0 mm | - | 0 W/m² | - |
| 1777770448 | 14.44° C | 53% | 1017.6 hPa | 0 mm | - | 0 W/m² | - |
| 1777770145 | 14.44° C | 52% | 1017.2 hPa | 0 mm | - | 0 W/m² | - |
| 1777769843 | 15° C | 50% | 1017.1 hPa | 0 mm | - | 0 W/m² | - |
| 1777769540 | 15° C | 50% | 1017.2 hPa | 0 mm | - | 0 W/m² | - |
| 1777769236 | 15.56° C | 50% | 1016.7 hPa | 0 mm | - | 0 W/m² | - |
| 1777768935 | 15.56° C | 48% | 1016.9 hPa | 0 mm | - | 0 W/m² | - |
| 1777768631 | 15.56° C | 51% | 1016.8 hPa | 0 mm | - | 1 W/m² | - |
| 1777768328 | 16.11° C | 48% | 1016.9 hPa | 0 mm | - | 3 W/m² | - |
| 1777768025 | 16.11° C | 52% | 1016.7 hPa | 0 mm | - | 3 W/m² | - |
| 1777767721 | 16.67° C | 48% | 1016.6 hPa | 0 mm | - | 4 W/m² | - |
| 1777767417 | 16.67° C | 48% | 1016.7 hPa | 0 mm | - | 6 W/m² | - |
| 1777767114 | 16.67° C | 47% | 1016.5 hPa | 0 mm | - | 7 W/m² | - |
| 1777766812 | 17.22° C | 49% | 1016.5 hPa | 0 mm | - | 8 W/m² | - |
* Rain latest hour (hover to see other rain measurements)
** Current wind speed in m/s (hover to see current wind gust speed)